Voltar ao catálogo

STARLINK-31800

AtivoComunicaçõesVLEO
NORAD 59643·PAYLOAD·🇺🇸 United States

Lançado May 3, 2024 de Cape Canaveral Space Force Station

Loading…

Próximas Passagens (próximas 24 horas)

TLE

AtualizadoSource: CelesTrak SupGP

Época: Sep 14, 2026, 22:13 UTC

1 59643C 24082N   26257.92618056 -.00028727  00000+0 -10406-2 0  2579
2 59643  43.0006 151.2959 0001342 269.4442 347.4289 15.27588708    14

Acompanhe STARLINK-31800 em tempo real com AllMySat

Download on the App Store